Regional Weather Roundup
Issued by NWS

Home | Current Version | Previous Version | Graphics & Text | Print | Product List | Glossary On
Versions: 1 2 3 4 5 6 7 8 9 10 11 12 13 14 15 16 17 18 19 20 21 22 23 24 25 26 27 28 29 30 31 32 33 34 35 36 37 38 39 40 41 42 43 44 45 46 47 48 49 50
000
ASUS43 KLMK 211910
RWRKY
KENTUCKY REGIONAL WEATHER ROUNDUP
NATIONAL WEATHER SERVICE LOUISVILLE KY
300 PM EDT SAT APR 21 2018

NOTE "FAIR" INDICATES FEW OR NO CLOUDS BELOW 12,000 FEET
WITH NO SIGNIFICANT WEATHER AND/OR OBSTRUCTIONS TO VISIBILITY.

KYZ001>023-026-027-061>063-070>075-212000-
WESTERN AND SOUTH CENTRAL KENTUCKY

CITY           SKY/WX    TMP DP  RH WIND       PRES   REMARKS
PADUCAH        FAIR      73  41  31 NE9       30.22F
HENDERSON      FAIR      68  34  28 NE10      30.27F
OWENSBORO      FAIR      70  29  21 VRB3      30.27F
HOPKINSVILLE   FAIR      70  37  30 NE10      30.23F
BOWLING GREEN  FAIR      71  36  27 MISG      30.28F
GLASGOW        FAIR      69  33  26 CALM      30.28F
$$

KYZ024-025-028>034-038-045-046-053-212000-
NORTH CENTRAL KENTUCKY

CITY           SKY/WX    TMP DP  RH WIND       PRES   REMARKS
LOUISVILLE/SDF PTSUNNY   68  29  23 MISG      30.31F
LOUISVILLE/LOU FAIR      68  32  26 VRB3      30.32F
FORT KNOX      FAIR      68  29  23 N5        30.30F
$$

KYZ035>037-039>044-047>052-055>060-089>105-212000-
NORTHEAST KENTUCKY

CITY           SKY/WX    TMP DP  RH WIND       PRES   REMARKS
LEXINGTON      FAIR      64  30  27 VRB3      30.33F
COVINGTON      CLOUDY    60  23  24 VRB6      30.35F
FRANKFORT      FAIR      65  29  25 VRB7      30.32F
$$

KYZ054-064>069-076>088-106>120-212000-
SOUTHEAST KENTUCKY

CITY           SKY/WX    TMP DP  RH WIND       PRES   REMARKS
JACKSON        FAIR      69  25  19 VRB3      30.30F
LONDON         FAIR      70  30  22 N7        30.29F
SOMERSET       FAIR      68  32  26 MISG      30.30F
MIDDLESBORO    FAIR      71  33  25 S3        30.28F
MONTICELLO     FAIR      69  36  29 N16       30.30F
$$





USA.gov is the U.S. government's official web portal to all federal, state and local government web resources and services.